Regional Weather Roundup
Issued by NWS

Home | Current Version | Previous Version | Text Only | Print | Product List | Glossary Off
Versions: 1 2 3 4 5 6 7 8 9 10 11 12 13 14 15 16 17 18 19 20 21 22 23 24 25 26 27 28 29 30 31 32 33 34 35 36 37 38 39 40 41 42 43 44 45 46 47 48 49 50

000
ASUS45 KCYS 011210
RWRWY

WYOMING REGIONAL WEATHER ROUNDUP
NATIONAL WEATHER SERVICE CHEYENNE WY
500 AM MST SUN MAR 01 2015

NOTE:  "FAIR" INDICATES FEW OR NO CLOUDS BELOW 12,000 FEET
WITH NO SIGNIFICANT WEATHER AND/OR OBSTRUCTIONS TO VISIBILITY.

WYZ001-011300-
YELLOWSTONE NATIONAL PARK

CITY           SKY/WX    TMP DP  RH WIND       PRES   REMARKS
LK YELLOWSTONE   N/A    -17 -22  78 CALM      30.08R
6HR MIN TEMP: -17; 6HR MAX TEMP:   0;

W YELLOWSTONE  NOT AVBL

$$
WYZ002>013-054>058-071-098>099-011300-
NORTHERN WYOMING

CITY           SKY/WX    TMP DP  RH WIND       PRES   REMARKS
JACKSON        FAIR       0  -2  92 N18       30.08R WCI -22
CODY           FAIR       9   5  85 CALM      30.16R
GREYBULL       FAIR      10   5  80 NW5       30.23R WCI   2
6HR MIN TEMP:  10; 6HR MAX TEMP:  18;

WORLAND        FAIR      17  11  77 CALM      30.21R
6HR MIN TEMP:  17; 6HR MAX TEMP:  23;

SHERIDAN       FAIR       6  -1  73 VRB3      30.21R
6HR MIN TEMP:   2; 6HR MAX TEMP:   9;

BUFFALO        FAIR      10   1  67 NW8       30.15R WCI  -2
6HR MIN TEMP:   3; 6HR MAX TEMP:  11;

GILLETTE       FAIR      11   6  81 W12       30.16R WCI  -3
6HR MIN TEMP:   4; 6HR MAX TEMP:  14; 6HR PCP: TRACE;

HULETT         CLOUDY    14   9  79 MISG      30.16R
NEWCASTLE      PTSUNNY   12   9  85 N5        30.19R WCI   4

$$
WYZ014>020-022>026-101>103-011300-
CENTRAL WYOMING

CITY           SKY/WX    TMP DP  RH WIND       PRES   REMARKS
BIG PINEY      CLOUDY     7   2  80 E7        30.06R WCI  -5
6HR MIN TEMP:   7; 6HR MAX TEMP:  18;

PINEDALE       CLOUDY    10   5  79 NW3       30.06R
DUBOIS         FAIR       5   0  78 NW7       30.02R WCI  -7
LANDER         CLOUDY    16   9  74 CALM      30.12R
6HR MIN TEMP:  16; 6HR MAX TEMP:  17; 6HR PCP: TRACE;

RIVERTON       CLOUDY    16  10  77 CALM      30.14R
6HR MIN TEMP:  16; 6HR MAX TEMP:  17;

CASPER         CLOUDY    13   9  84 SW5       30.13R WCI   5
6HR MIN TEMP:  13; 6HR MAX TEMP:  15; 6HR PCP: TRACE;

DOUGLAS        CLOUDY    15  11  83 CALM      30.16R
6HR MIN TEMP:  14; 6HR MAX TEMP:  19; 6HR PCP: TRACE;


$$
WYZ021-027>030-104>119-011300-
SOUTHERN WYOMING

CITY           SKY/WX    TMP DP  RH WIND       PRES   REMARKS
EVANSTON       CLOUDY    19  15  84 E8        30.00R WCI   9
6HR MIN TEMP:  18; 6HR MAX TEMP:  23;

FORT BRIDGER   CLOUDY    18  17  98 NE5       30.05R WCI  11
ROCK SPRINGS   MOCLDY     9   4  80 E6        30.07R WCI  -1
6HR MIN TEMP:   7; 6HR MAX TEMP:  13; 6HR PCP: TRACE;

DIXON          CLOUDY    19  16  87 CALM      30.06R
RAWLINS        CLOUDY     5   1  83 NW6       30.05R WCI  -6
6HR MIN TEMP:   4; 6HR MAX TEMP:  16; 6HR PCP: TRACE;

SARATOGA       LGT SNOW  12  10  92 CALM      30.04R
LARAMIE        FAIR       4   1  88 N7        29.99R WCI  -8
6HR MIN TEMP:   3; 6HR MAX TEMP:  15; 6HR PCP: TRACE;

CHEYENNE       FAIR      11   7  84 N7        30.04R WCI   0
6HR MIN TEMP:  11; 6HR MAX TEMP:  17; 6HR PCP:  0.01;

TORRINGTON     CLOUDY    17  11  77 N5        30.18R WCI  10
6HR MIN TEMP:  16; 6HR MAX TEMP:  23; 6HR PCP: TRACE;

PINE BLUFFS    FAIR      12  10  92 CALM      30.10R

$$


USA.gov is the U.S. government's official web portal to all federal, state and local government web resources and services.